Weather History for LTCG - December, 2012

Change the Weather History Date:

Friday, December 7, 2012

  Actual Average Record
Temperature  
Mean Temperature 54 °F -  
Max Temperature 59 °F 51 °F 75 °F (2008)
Min Temperature 50 °F 41 °F 37 °F (2004)
Degree Days  
Heating Degree Days 10    
Growing Degree Days 4 (Base 50)    
Moisture  
Dew Point 40 °F    
Average Humidity 55    
Maximum Humidity 72    
Minimum Humidity 29    
Precipitation  
Precipitation 0.00 in - - ()
Sea Level Pressure  
Sea Level Pressure 29.81 in    
Wind  
Wind Speed 5 mph ()    
Max Wind Speed 12 mph    
Max Gust Speed 15 mph    
Visibility 6.5 miles    
Events Rain    
Averages and records for this station are not official NWS values.
T = Trace of Precipitation, MM = Missing Value Source: Averaged Metar Reports

Daily Weather History Graph

Daily Weather History Graph

Search for Another Location

Airport or City:

Trip Planner

Search our weather history database for the weather conditions in past years. The results will help you decide how hot, cold, wet, or windy it might be!

Date:

Astronomy

Dec. 07, 2012 Rise Set
Actual Time 6:32 AM EET 3:52 PM EET
Civil Twilight 6:01 AM EET 4:23 PM EET
Nautical Twilight 5:27 AM EET 4:57 PM EET
Astronomical Twilight 4:53 AM EET 5:31 PM EET
Moon No Moon Rise 11:40 AM EET (12/7)
Length of Visible Light 10h 21m
Length of Day
9h 20m
Last Quarter, 42% of the Moon is Illuminated
Dec 7
Last Quarter
Dec 13
New
Dec 20
First Quarter
Dec 28
Full
Jan 5
Last Quarter

Hourly Weather History & Observations

Time (EET) Temp. Dew Point Humidity Pressure Visibility Wind Dir Wind Speed Gust Speed Precip Events Conditions
12:20 AM 51.8 °F 33.8 °F 50% 29.83 in 6.2 mi SSW 5.8 mph - N/A   Scattered Clouds
12:50 AM 55.4 °F 32.0 °F 41% 29.83 in 6.2 mi South 6.9 mph - N/A   Mostly Cloudy
1:20 AM 57.2 °F 28.4 °F 33% 29.83 in 6.2 mi SSW 11.5 mph - N/A   Scattered Clouds
1:50 AM 53.6 °F 30.2 °F 41% 29.86 in 6.2 mi South 9.2 mph - N/A   Scattered Clouds
2:00 AM 54 °F 31 °F 29% 29.86 in 12 mi South 9.2 mph - -   Partly Cloudy
2:20 AM 53.6 °F 32.0 °F 44% 29.86 in 6.2 mi South 5.8 mph - N/A   Scattered Clouds
2:50 AM 51.8 °F 37.4 °F 58% 29.83 in 6.2 mi South 3.5 mph - N/A   Scattered Clouds
3:20 AM 51.8 °F 37.4 °F 58% 29.83 in 6.2 mi South 3.5 mph - N/A   Scattered Clouds
3:50 AM 53.6 °F 39.2 °F 58% 29.83 in 6.2 mi Variable 1.2 mph - N/A   Scattered Clouds
4:20 AM 51.8 °F 37.4 °F 58% 29.83 in 6.2 mi Variable 2.3 mph - N/A   Mostly Cloudy
4:50 AM 51.8 °F 35.6 °F 54% 29.83 in 6.2 mi SSW 4.6 mph - N/A   Mostly Cloudy
5:20 AM 53.6 °F 37.4 °F 54% 29.83 in 6.2 mi SSW 4.6 mph - N/A   Mostly Cloudy
5:50 AM 55.4 °F 39.2 °F 54% 29.86 in 6.2 mi South 6.9 mph - N/A   Mostly Cloudy
6:20 AM 55.4 °F 41.0 °F 58% 29.83 in 6.2 mi South 4.6 mph - N/A   Mostly Cloudy
6:50 AM 57.2 °F 37.4 °F 48% 29.83 in 6.2 mi South 5.8 mph - N/A   Mostly Cloudy
7:20 AM 57.2 °F 35.6 °F 44% 29.83 in 6.2 mi South 3.5 mph - N/A   Mostly Cloudy
7:50 AM 53.6 °F 33.8 °F 47% 29.86 in 6.2 mi NW 6.9 mph - N/A   Mostly Cloudy
8:00 AM 54 °F 33 °F 32% 29.86 in 12 mi NW 6.9 mph - -   Partly Cloudy
8:20 AM 55.4 °F 35.6 °F 47% 29.86 in 6.2 mi SSW 4.6 mph - N/A   Mostly Cloudy
8:50 AM 57.2 °F 41.0 °F 55% 29.86 in 6.2 mi SSE 5.8 mph - N/A   Mostly Cloudy
9:20 AM 57.2 °F 42.8 °F 59% 29.86 in 6.2 mi Variable 1.2 mph - N/A   Mostly Cloudy
9:50 AM 59.0 °F 42.8 °F 55% 29.83 in 6.2 mi Variable 2.3 mph - N/A   Mostly Cloudy
10:20 AM 59.0 °F 42.8 °F 55% 29.83 in 6.2 mi Variable 2.3 mph - N/A   Mostly Cloudy
10:50 AM 59.0 °F 46.4 °F 63% 29.83 in 6.2 mi ESE 5.8 mph - N/A   Mostly Cloudy
11:20 AM 59.0 °F 46.4 °F 63% 29.83 in 6.2 mi ESE 4.6 mph - N/A   Mostly Cloudy
11:50 AM 59.0 °F 46.4 °F 63% 29.80 in 6.2 mi East 5.8 mph - N/A   Mostly Cloudy
12:20 PM 59.0 °F 46.4 °F 63% 29.83 in 6.2 mi ESE 4.6 mph - N/A   Mostly Cloudy
12:50 PM 59.0 °F 46.4 °F 63% 29.80 in 6.2 mi Variable 1.2 mph - N/A   Mostly Cloudy
1:20 PM 59.0 °F 44.6 °F 59% 29.83 in 6.2 mi Variable 4.6 mph - N/A   Mostly Cloudy
1:50 PM 57.2 °F 48.2 °F 72% 29.80 in 6.2 mi Variable 5.8 mph - N/A Rain Light Rain Showers
2:00 PM 57 °F 47 °F 62% 29.81 in 9 mi West 5.8 mph - - Rain Light Rain Showers
2:20 PM 57.2 °F 41.0 °F 55% 29.80 in 6.2 mi Variable 2.3 mph 15.0 mph N/A   Mostly Cloudy
2:50 PM 59.0 °F 41.0 °F 51% 29.80 in 6.2 mi East 4.6 mph - N/A   Mostly Cloudy
3:20 PM 57.2 °F 39.2 °F 51% 29.80 in 6.2 mi Variable 2.3 mph - N/A   Mostly Cloudy
3:50 PM 57.2 °F 41.0 °F 55% 29.77 in 5.0 mi South 3.5 mph - N/A   Mostly Cloudy
4:20 PM 55.4 °F 42.8 °F 63% 29.77 in 6.2 mi South 5.8 mph - N/A   Mostly Cloudy
4:50 PM 57.2 °F 42.8 °F 59% 29.77 in 6.2 mi Calm Calm - N/A   Mostly Cloudy
5:20 PM 55.4 °F 42.8 °F 63% 29.77 in 6.2 mi South 5.8 mph - N/A   Mostly Cloudy
5:50 PM 55.4 °F 42.8 °F 63% 29.74 in 6.2 mi SSE 4.6 mph - N/A   Mostly Cloudy
6:20 PM 57.2 °F 42.8 °F 59% 29.74 in 6.2 mi SE 6.9 mph - N/A   Mostly Cloudy
6:50 PM 55.4 °F 42.8 °F 63% 29.77 in 6.2 mi SW 3.5 mph - N/A   Mostly Cloudy
7:20 PM 53.6 °F 42.8 °F 67% 29.77 in 6.2 mi SW 4.6 mph - N/A   Mostly Cloudy
7:50 PM 55.4 °F 42.8 °F 63% 29.77 in 6.2 mi SW 3.5 mph - N/A   Mostly Cloudy
8:00 PM 55 °F 42 °F 51% 29.78 in 6 mi SW 3.5 mph - -   Partly Cloudy
8:20 PM 55.4 °F 42.8 °F 63% 29.77 in 6.2 mi SSW 6.9 mph - N/A   Mostly Cloudy
8:50 PM 55.4 °F 41.0 °F 58% 29.77 in 6.2 mi Variable 5.8 mph - N/A   Mostly Cloudy
9:20 PM 55.4 °F 41.0 °F 58% 29.77 in 6.2 mi South 4.6 mph - N/A   Mostly Cloudy
9:50 PM 53.6 °F 41.0 °F 62% 29.77 in 6.2 mi SSW 5.8 mph - N/A   Mostly Cloudy
10:20 PM 55.4 °F 39.2 °F 54% 29.77 in 6.2 mi SSW 4.6 mph - N/A   Mostly Cloudy
10:50 PM 53.6 °F 39.2 °F 58% 29.77 in 6.2 mi WSW 4.6 mph - N/A   Mostly Cloudy
11:20 PM 53.6 °F 41.0 °F 62% 29.77 in 6.2 mi SSW 3.5 mph - N/A   Scattered Clouds
11:50 PM 53.6 °F 39.2 °F 58% 29.77 in 6.2 mi SW 4.6 mph - N/A   Mostly Cloudy